CQ0XPA-11 Weather Reports


time (UTC)temp
C
wind
direction
speed
KPH
gust
KPH
rain 1hr
cm
rain 24hr
cm
rain mn
cm
humidity
%
barometer
mb
20200220075458 4 0 0.0 1.6 0.00 0.00 0.00 100 1018.5
20200220075255 4 0 0.0 0.0 0.00 0.00 0.00 100 1018.5
20200220075054 4 0 0.0 0.0 0.00 0.00 0.00 100 1018.5
20200220074851 4 0 0.0 0.0 0.00 0.00 0.00 100 1018.5
20200220074650 4 0 0.0 0.0 0.00 0.00 0.00 100 1018.4
20200220074447 4 0 0.0 0.0 0.00 0.00 0.00 100 1018.5
20200220074245 4 0 0.0 1.6 0.00 0.00 0.00 100 1018.4
20200220074043 4 0 0.0 1.6 0.00 0.00 0.00 100 1018.4
20200220073841 4 112 0.0 0.0 0.00 0.00 0.00 100 1018.4
20200220073639 4 270 0.0 1.6 0.00 0.00 0.00 100 1018.4
20200220073437 4 270 1.6 1.6 0.00 0.00 0.00 100 1018.4
20200220073235 4 67 0.0 1.6 0.00 0.00 0.00 100 1018.5
20200220073033 4 90 1.6 1.6 0.00 0.00 0.00 100 1018.5
20200220072830 4 90 0.0 1.6 0.00 0.00 0.00 100 1018.5
20200220072629 4 0 0.0 1.6 0.00 0.00 0.00 100 1018.4
20200220072426 4 0 0.0 3.2 0.00 0.00 0.00 100 1018.5
20200220072225 4 270 1.6 3.2 0.00 0.00 0.00 100 1018.4
20200220072022 4 112 0.0 4.8 0.00 0.00 0.00 100 1018.4
20200220071821 4 90 3.2 4.8 0.00 0.00 0.00 100 1018.3
20200220071618 4 45 1.6 3.2 0.00 0.00 0.00 100 1018.4
20200220071416 4 112 1.6 3.2 0.00 0.00 0.00 100 1018.5
20200220071214 4 135 0.0 3.2 0.00 0.00 0.00 100 1018.5
20200220071012 4 135 0.0 3.2 0.00 0.00 0.00 100 1018.4
20200220070810 4 135 0.0 3.2 0.00 0.00 0.00 100 1018.5
20200220070406 4 135 0.0 3.2 0.00 0.00 0.00 100 1018.5
20200220070204 4 0 3.2 3.2 0.00 0.00 0.00 100 1018.4
20200220070001 4 0 1.6 3.2 0.00 0.00 0.00 100 1018.4
20200220065800 4 90 0.0 0.0 0.00 0.00 0.00 100 1018.4
20200220065557 4 90 0.0 0.0 0.00 0.00 0.00 100 1018.5
20200220065356 4 90 0.0 0.0 0.00 0.00 0.00 100 1018.4
20200220065153 4 90 0.0 1.6 0.00 0.00 0.00 100 1018.5
20200220064952 4 90 0.0 1.6 0.00 0.00 0.00 100 1018.5
20200220064749 4 90 1.6 1.6 0.00 0.00 0.00 100 1018.5
20200220064547 4 112 0.0 0.0 0.00 0.00 0.00 100 1018.5
20200220064345 4 0 0.0 0.0 0.00 0.00 0.00 100 1018.4
20200220064143 4 0 0.0 1.6 0.00 0.00 0.00 100 1018.4
20200220063941 4 0 0.0 1.6 0.00 0.00 0.00 100 1018.4
20200220063739 4 0 0.0 4.8 0.00 0.00 0.00 100 1018.4
20200220063537 4 0 0.0 4.8 0.00 0.00 0.00 100 1018.4
20200220063335 4 22 3.2 4.8 0.00 0.00 0.00 100 1018.4
20200220063133 4 45 1.6 3.2 0.00 0.00 0.00 100 1018.3
20200220062931 4 112 0.0 0.0 0.00 0.00 0.00 100 1018.4
20200220062319 4 0 0.0 1.6 0.00 0.00 0.00 100 1018.4
20200220062118 3 0 0.0 1.6 0.00 0.00 0.00 100 1018.3
20200220061713 3 0 1.6 1.6 0.00 0.00 0.00 100 1018.4
20200220061511 3 0 1.6 1.6 0.00 0.00 0.00 100 1018.3
20200220061309 3 112 0.0 0.0 0.00 0.00 0.00 100 1018.3
20200220061107 3 112 0.0 1.6 0.00 0.00 0.00 100 1018.4
20200220060905 3 112 0.0 1.6 0.00 0.00 0.00 100 1018.4
20200220055854 4 112 0.0 0.0 0.00 0.00 0.00 100 1018.4
20200220054642 4 112 0.0 0.0 0.00 0.00 0.00 100 1018.4
20200220054441 5 112 0.0 0.0 0.00 0.00 0.00 100 1018.5
20200220054238 5 112 0.0 0.0 0.00 0.00 0.00 100 1018.5
20200220054036 5 112 0.0 1.6 0.00 0.00 0.00 100 1018.4
20200220053834 5 112 0.0 1.6 0.00 0.00 0.00 100 1018.4
20200220053632 5 112 0.0 0.0 0.00 0.00 0.00 100 1018.6
20200220053430 5 112 0.0 0.0 0.00 0.00 0.00 100 1018.4
20200220053228 5 112 0.0 0.0 0.00 0.00 0.00 100 1018.5
20200220053026 5 112 0.0 0.0 0.00 0.00 0.00 100 1018.6
20200220052824 5 180 0.0 0.0 0.00 0.00 0.00 100 1018.6
20200220052621 5 180 0.0 0.0 0.00 0.00 0.00 100 1018.5
20200220052420 5 180 0.0 1.6 0.00 0.00 0.00 100 1018.6
20200220052217 5 270 1.6 1.6 0.00 0.00 0.00 100 1018.7
20200220052017 5 112 0.0 1.6 0.00 0.00 0.00 100 1018.7
20200220051813 5 45 0.0 1.6 0.00 0.00 0.00 100 1018.8
20200220051611 5 45 1.6 1.6 0.00 0.00 0.00 100 1018.7
20200220051207 5 112 0.0 3.2 0.00 0.00 0.00 100 1018.8
20200220051006 5 112 1.6 3.2 0.00 0.00 0.00 100 1018.7
20200220050601 5 112 1.6 3.2 0.00 0.00 0.00 100 1018.7
20200220050359 4 112 0.0 0.0 0.00 0.00 0.00 100 1018.7
20200220050156 5 112 0.0 0.0 0.00 0.00 0.00 100 1018.8
20200220045955 5 112 0.0 1.6 0.00 0.00 0.00 100 1018.8
20200220045752 4 112 0.0 1.6 0.00 0.00 0.00 100 1018.8
20200220044944 4 45 0.0 4.8 0.00 0.00 0.00 100 1018.8
20200220044742 4 78 0.0 0.0 0.00 0.00 0.00 100 1018.7
20200220044540 4 112 0.0 0.0 0.00 0.00 0.00 100 1018.9
20200220044338 4 112 0.0 0.0 0.00 0.00 0.00 100 1018.9
20200220044136 4 112 0.0 0.0 0.00 0.00 0.00 100 1018.8
20200220043934 4 270 0.0 1.6 0.00 0.00 0.00 100 1019.0
20200220043732 4 270 0.0 1.6 0.00 0.00 0.00 100 1019.0
20200220043530 4 270 1.6 1.6 0.00 0.00 0.00 100 1019.1
20200220043327 4 135 0.0 0.0 0.00 0.00 0.00 100 1019.0
20200220043126 4 135 0.0 0.0 0.00 0.00 0.00 100 1018.9
20200220042924 4 135 0.0 0.0 0.00 0.00 0.00 100 1019.1
20200220042722 4 135 0.0 0.0 0.00 0.00 0.00 100 1019.0
20200220042519 4 135 0.0 0.0 0.00 0.00 0.00 100 1019.0
20200220042318 4 135 0.0 0.0 0.00 0.00 0.00 100 1019.0
20200220042115 4 135 0.0 0.0 0.00 0.00 0.00 100 1019.0
20200220041913 4 135 0.0 0.0 0.00 0.00 0.00 100 1019.0
20200220041711 4 135 0.0 0.0 0.00 0.00 0.00 100 1019.0
20200220041509 4 135 0.0 0.0 0.00 0.00 0.00 100 1019.0
20200220041307 4 135 0.0 0.0 0.00 0.00 0.00 100 1019.0
20200220041105 4 135 0.0 0.0 0.00 0.00 0.00 100 1019.1
20200220040903 4 135 0.0 0.0 0.00 0.00 0.00 100 1019.1
20200220040701 4 135 0.0 0.0 0.00 0.00 0.00 100 1019.1
20200220040458 4 135 0.0 0.0 0.00 0.00 0.00 100 1019.1
20200220035853 4 135 0.0 0.0 0.00 0.00 0.00 100 1019.1
20200220035449 4 135 0.0 1.6 0.00 0.00 0.00 100 1019.1
20200220035246 4 135 0.0 1.6 0.00 0.00 0.00 100 1019.1
20200220035044 4 135 0.0 0.0 0.00 0.00 0.00 100 1019.1
20200220034842 4 135 0.0 0.0 0.00 0.00 0.00 100 1019.1
20200220034640 4 135 0.0 0.0 0.00 0.00 0.00 100 1019.1
20200220034438 4 135 0.0 0.0 0.00 0.00 0.00 100 1019.0
20200220034236 4 135 0.0 0.0 0.00 0.00 0.00 100 1019.2
20200220034034 4 135 0.0 0.0 0.00 0.00 0.00 100 1019.1
20200220033832 4 135 0.0 0.0 0.00 0.00 0.00 100 1019.2
20200220033630 4 135 0.0 0.0 0.00 0.00 0.00 100 1019.2
20200220033428 4 135 0.0 0.0 0.00 0.00 0.00 100 1019.2
20200220033225 4 135 0.0 1.6 0.00 0.00 0.00 100 1019.2
20200220033024 4 135 0.0 1.6 0.00 0.00 0.00 100 1019.2
20200220032821 4 135 0.0 1.6 0.00 0.00 0.00 100 1019.3
20200220032620 4 135 0.0 0.0 0.00 0.00 0.00 100 1019.2
20200220032417 4 135 0.0 0.0 0.00 0.00 0.00 99 1019.3
20200220032216 4 135 0.0 0.0 0.00 0.00 0.00 100 1019.3
20200220032013 4 135 0.0 0.0 0.00 0.00 0.00 100 1019.3
20200220031811 4 135 0.0 0.0 0.00 0.00 0.00 100 1019.3
20200220031609 4 135 0.0 0.0 0.00 0.00 0.00 100 1019.3
20200220031407 4 135 0.0 0.0 0.00 0.00 0.00 99 1019.4
20200220031205 4 135 0.0 0.0 0.00 0.00 0.00 99 1019.3
20200220030801 4 135 0.0 0.0 0.00 0.00 0.00 99 1019.4
20200220030559 4 135 0.0 0.0 0.00 0.00 0.00 99 1019.4
20200220030155 4 135 0.0 0.0 0.00 0.00 0.00 99 1019.5
20200220025952 4 135 0.0 0.0 0.00 0.00 0.00 99 1019.5
20200220025751 4 135 0.0 0.0 0.00 0.00 0.00 99 1019.6
20200220025548 4 135 0.0 0.0 0.00 0.00 0.00 99 1019.6
20200220025347 4 135 0.0 0.0 0.00 0.00 0.00 100 1019.5
20200220025144 4 135 0.0 0.0 0.00 0.00 0.00 99 1019.6
20200220024942 4 135 0.0 0.0 0.00 0.00 0.00 99 1019.7
20200220024740 4 135 0.0 0.0 0.00 0.00 0.00 99 1019.7
20200220024538 4 135 0.0 0.0 0.00 0.00 0.00 99 1019.6
20200220024336 4 135 0.0 0.0 0.00 0.00 0.00 99 1019.7
20200220024134 4 135 0.0 0.0 0.00 0.00 0.00 99 1019.7
20200220023932 4 135 0.0 1.6 0.00 0.00 0.00 99 1019.7
20200220023730 4 135 0.0 1.6 0.00 0.00 0.00 99 1019.8
20200220023527 4 135 0.0 0.0 0.00 0.00 0.00 98 1019.8
20200220023326 4 135 0.0 0.0 0.00 0.00 0.00 98 1019.7
20200220023123 4 135 0.0 0.0 0.00 0.00 0.00 98 1019.7
20200220022922 4 135 0.0 0.0 0.00 0.00 0.00 99 1019.8
20200220022719 5 135 0.0 0.0 0.00 0.00 0.00 98 1019.7
20200220022518 5 135 0.0 0.0 0.00 0.00 0.00 98 1019.7
20200220022315 5 135 0.0 0.0 0.00 0.00 0.00 98 1019.8
20200220022113 5 135 0.0 0.0 0.00 0.00 0.00 97 1019.9
20200220021911 5 135 0.0 0.0 0.00 0.00 0.00 98 1019.8
20200220021709 5 135 0.0 0.0 0.00 0.00 0.00 98 1019.8
20200220021507 5 135 0.0 0.0 0.00 0.00 0.00 98 1019.8
20200220021305 5 135 0.0 0.0 0.00 0.00 0.00 98 1019.9
20200220021103 5 135 0.0 0.0 0.00 0.00 0.00 98 1019.9
20200220020901 5 135 0.0 0.0 0.00 0.00 0.00 98 1019.8
20200220020658 5 135 0.0 0.0 0.00 0.00 0.00 97 1019.8
20200220020457 5 135 0.0 0.0 0.00 0.00 0.00 97 1019.9
20200220020254 5 135 0.0 0.0 0.00 0.00 0.00 97 1020.0
20200220020053 5 135 0.0 0.0 0.00 0.00 0.00 98 1019.9
20200220015850 5 135 0.0 0.0 0.00 0.00 0.00 97 1019.9
20200220015649 5 135 0.0 0.0 0.00 0.00 0.00 97 1020.0
20200220015446 5 135 0.0 0.0 0.00 0.00 0.00 97 1020.0
20200220015042 5 135 0.0 0.0 0.00 0.00 0.00 97 1020.1
20200220014638 5 135 0.0 0.0 0.00 0.00 0.00 97 1020.1
20200220014436 5 135 0.0 0.0 0.00 0.00 0.00 97 1020.1
20200220014235 5 135 0.0 0.0 0.00 0.00 0.00 97 1020.1
20200220014034 5 135 0.0 0.0 0.00 0.00 0.00 97 1020.1
20200220013831 5 135 0.0 0.0 0.00 0.00 0.00 97 1020.1
20200220013628 5 135 0.0 0.0 0.00 0.00 0.00 97 1020.2
20200220013427 5 135 0.0 0.0 0.00 0.00 0.00 97 1020.2
20200220013224 5 135 0.0 0.0 0.00 0.00 0.00 97 1020.2
20200220013022 5 135 0.0 0.0 0.00 0.00 0.00 97 1020.1
20200220012820 5 135 0.0 0.0 0.00 0.00 0.00 97 1020.2
20200220012617 5 135 0.0 0.0 0.00 0.00 0.00 97 1020.2
20200220012416 5 135 0.0 0.0 0.00 0.00 0.00 97 1020.1
20200220012215 5 135 0.0 0.0 0.00 0.00 0.00 96 1020.0
20200220012011 5 135 0.0 0.0 0.00 0.00 0.00 96 1020.1
20200220011810 5 135 0.0 0.0 0.00 0.00 0.00 96 1020.2
20200220011609 5 135 0.0 0.0 0.00 0.00 0.00 96 1020.2
20200220011406 5 135 0.0 0.0 0.00 0.00 0.00 96 1020.2
20200220011205 5 135 0.0 0.0 0.00 0.00 0.00 96 1020.2
20200220010355 6 135 0.0 0.0 0.00 0.00 0.00 96 1020.1
20200220010154 6 135 0.0 1.6 0.00 0.00 0.00 96 1020.1
20200220005750 6 135 0.0 1.6 0.00 0.00 0.00 96 1020.2
20200220005548 6 135 0.0 0.0 0.00 0.00 0.00 95 1020.2
20200220005144 6 135 0.0 0.0 0.00 0.00 0.00 95 1020.3
20200220004941 6 135 0.0 0.0 0.00 0.00 0.00 95 1020.2
20200220004738 6 135 0.0 0.0 0.00 0.00 0.00 95 1020.2
20200220004537 6 135 0.0 0.0 0.00 0.00 0.00 95 1020.2
20200220004336 6 135 0.0 0.0 0.00 0.00 0.00 95 1020.3
20200220004132 6 135 0.0 0.0 0.00 0.00 0.00 95 1020.3
20200220003932 6 135 0.0 0.0 0.00 0.00 0.00 95 1020.3
20200220003727 6 135 0.0 0.0 0.00 0.00 0.00 95 1020.4
20200220003526 6 135 0.0 0.0 0.00 0.00 0.00 95 1020.4
20200220003323 6 135 0.0 0.0 0.00 0.00 0.00 95 1020.4
20200220003122 6 135 0.0 0.0 0.00 0.00 0.00 95 1020.4
20200220002919 6 135 0.0 1.6 0.00 0.00 0.00 95 1020.4
20200220002718 6 135 1.6 1.6 0.00 0.00 0.00 95 1020.5
20200220002515 6 135 0.0 0.0 0.00 0.00 0.00 94 1020.4
20200220002313 6 135 0.0 0.0 0.00 0.00 0.00 94 1020.5
20200220002111 6 135 0.0 0.0 0.00 0.00 0.00 94 1020.4
20200220001909 6 135 0.0 0.0 0.00 0.00 0.00 94 1020.5
20200220001707 6 135 0.0 0.0 0.00 0.00 0.00 94 1020.5
20200220001505 6 135 0.0 0.0 0.00 0.00 0.00 94 1020.5
20200220001303 6 135 0.0 0.0 0.00 0.00 0.00 93 1020.5
20200220001101 6 135 0.0 0.0 0.00 0.00 0.00 93 1020.6
20200220000859 6 135 0.0 0.0 0.00 0.00 0.00 93 1020.5
20200220000657 6 135 0.0 0.0 0.00 0.00 0.00 93 1020.6
20200220000454 7 135 0.0 0.0 0.00 0.00 0.00 92 1020.6
20200220000253 7 135 0.0 0.0 0.00 0.00 0.00 93 1020.7
20200220000050 7 135 0.0 0.0 0.00 0.00 0.00 93 1020.7
20200219235849 7 135 0.0 0.0 0.00 0.00 0.00 93 1020.6
20200219235646 7 135 0.0 0.0 0.00 0.00 0.00 93 1020.6
20200219235444 7 135 0.0 0.0 0.00 0.00 0.00 93 1020.6
20200219235242 7 135 0.0 1.6 0.00 0.00 0.00 93 1020.7
20200219235040 7 135 1.6 1.6 0.00 0.00 0.00 93 1020.7
20200219234838 7 135 1.6 1.6 0.00 0.00 0.00 92 1020.7
20200219234636 7 135 0.0 0.0 0.00 0.00 0.00 93 1020.8
20200219234435 7 135 0.0 0.0 0.00 0.00 0.00 92 1020.7
20200219234232 7 135 0.0 1.6 0.00 0.00 0.00 92 1020.8
20200219234030 7 135 0.0 1.6 0.00 0.00 0.00 92 1020.8
20200219233828 7 135 0.0 1.6 0.00 0.00 0.00 93 1020.8
20200219233625 7 135 1.6 1.6 0.00 0.00 0.00 92 1020.7
20200219233424 7 135 0.0 1.6 0.00 0.00 0.00 92 1020.8
20200219233221 7 135 0.0 1.6 0.00 0.00 0.00 91 1020.7
20200219233020 7 135 0.0 0.0 0.00 0.00 0.00 91 1020.8
20200219232817 7 135 0.0 0.0 0.00 0.00 0.00 91 1020.9
20200219232615 8 135 0.0 0.0 0.00 0.00 0.00 91 1020.9
20200219232413 8 135 0.0 0.0 0.00 0.00 0.00 92 1020.9
20200219232213 8 135 0.0 0.0 0.00 0.00 0.00 91 1020.9
20200219232009 8 135 0.0 1.6 0.00 0.00 0.00 92 1020.9
20200219231807 8 135 0.0 4.8 0.00 0.00 0.00 92 1021.0
20200219231605 8 135 0.0 4.8 0.00 0.00 0.00 93 1021.0
20200219231403 8 135 1.6 4.8 0.00 0.00 0.00 93 1021.0
20200219231201 8 180 0.0 4.8 0.00 0.00 0.00 93 1020.9
20200219230959 8 180 4.8 4.8 0.00 0.00 0.00 93 1020.9
20200219230555 8 135 0.0 4.8 0.00 0.00 0.00 92 1021.0
20200219230352 8 22 0.0 4.8 0.00 0.00 0.00 92 1021.0
20200219225948 8 22 0.0 3.2 0.00 0.00 0.00 91 1021.1
20200219225747 8 270 0.0 1.6 0.00 0.00 0.00 92 1021.1
20200219225342 8 270 0.0 1.6 0.00 0.00 0.00 92 1021.2
20200219225140 8 112 1.6 1.6 0.00 0.00 0.00 92 1021.2
20200219224736 7 22 0.0 1.6 0.00 0.00 0.00 93 1021.1
20200219224534 7 22 0.0 1.6 0.00 0.00 0.00 93 1021.3
20200219224332 7 22 1.6 1.6 0.00 0.00 0.00 93 1021.2
20200219224130 7 90 1.6 1.6 0.00 0.00 0.00 92 1021.2
20200219223927 7 112 1.6 1.6 0.00 0.00 0.00 93 1021.2
20200219223726 7 270 0.0 0.0 0.00 0.00 0.00 92 1021.2
20200219223523 7 270 0.0 0.0 0.00 0.00 0.00 91 1021.2
20200219223322 7 270 0.0 1.6 0.00 0.00 0.00 92 1021.2
20200219223119 7 270 0.0 1.6 0.00 0.00 0.00 91 1021.2
20200219222918 7 180 1.6 1.6 0.00 0.00 0.00 90 1021.2
20200219222715 7 112 0.0 0.0 0.00 0.00 0.00 90 1021.2
20200219222513 7 112 0.0 0.0 0.00 0.00 0.00 90 1021.2
20200219222311 7 112 0.0 0.0 0.00 0.00 0.00 90 1021.2
20200219222109 7 112 0.0 0.0 0.00 0.00 0.00 89 1021.2
20200219221908 7 112 0.0 0.0 0.00 0.00 0.00 89 1021.1
20200219221705 7 112 0.0 0.0 0.00 0.00 0.00 89 1021.2
20200219221503 7 112 0.0 0.0 0.00 0.00 0.00 88 1021.2
20200219221301 7 112 0.0 0.0 0.00 0.00 0.00 88 1021.2
20200219221058 7 112 0.0 0.0 0.00 0.00 0.00 88 1021.3
20200219220857 8 112 0.0 0.0 0.00 0.00 0.00 88 1021.2
20200219220654 8 112 0.0 0.0 0.00 0.00 0.00 88 1021.2
20200219220453 8 112 0.0 0.0 0.00 0.00 0.00 88 1021.3
20200219220250 8 112 0.0 0.0 0.00 0.00 0.00 88 1021.2
20200219220049 8 112 0.0 0.0 0.00 0.00 0.00 88 1021.2
20200219215846 8 112 0.0 0.0 0.00 0.00 0.00 88 1021.1
20200219215646 8 112 0.0 0.0 0.00 0.00 0.00 88 1021.2
20200219215442 8 112 0.0 0.0 0.00 0.00 0.00 87 1021.3
20200219215240 8 112 0.0 0.0 0.00 0.00 0.00 87 1021.2
20200219215038 8 112 0.0 0.0 0.00 0.00 0.00 87 1021.2
20200219214836 8 112 0.0 0.0 0.00 0.00 0.00 87 1021.3
20200219214635 8 112 0.0 0.0 0.00 0.00 0.00 87 1021.2
20200219214432 8 112 0.0 0.0 0.00 0.00 0.00 86 1021.3
20200219214229 8 112 0.0 0.0 0.00 0.00 0.00 86 1021.2
20200219214029 8 112 0.0 0.0 0.00 0.00 0.00 85 1021.2
20200219213825 8 112 0.0 0.0 0.00 0.00 0.00 85 1021.3
20200219213624 8 112 0.0 1.6 0.00 0.00 0.00 85 1021.3
20200219213421 8 112 0.0 1.6 0.00 0.00 0.00 85 1021.2
20200219213220 8 112 0.0 0.0 0.00 0.00 0.00 85 1021.3
20200219212613 9 270 0.0 0.0 0.00 0.00 0.00 84 1021.3
20200219211159 9 112 0.0 0.0 0.00 0.00 0.00 83 1021.3
20200219210956 9 112 0.0 0.0 0.00 0.00 0.00 82 1021.3
20200219210552 9 22 0.0 0.0 0.00 0.00 0.00 82 1021.2
20200219210351 9 22 0.0 0.0 0.00 0.00 0.00 82 1021.3
20200219210148 10 22 0.0 0.0 0.00 0.00 0.00 81 1021.2
20200219205946 10 22 0.0 0.0 0.00 0.00 0.00 81 1021.4
20200219205542 10 22 0.0 0.0 0.00 0.00 0.00 81 1021.3
20200219205340 10 22 0.0 0.0 0.00 0.00 0.00 80 1021.3
20200219205138 10 112 0.0 0.0 0.00 0.00 0.00 80 1021.3
20200219204936 10 112 0.0 0.0 0.00 0.00 0.00 80 1021.3
20200219204734 10 112 0.0 0.0 0.00 0.00 0.00 79 1021.2
20200219204330 10 112 0.0 0.0 0.00 0.00 0.00 78 1021.3
20200219204127 10 112 0.0 0.0 0.00 0.00 0.00 78 1021.3
20200219203926 11 112 0.0 0.0 0.00 0.00 0.00 78 1021.2
20200219203723 11 112 0.0 0.0 0.00 0.00 0.00 77 1021.3
20200219203522 11 112 0.0 0.0 0.00 0.00 0.00 77 1021.3
20200219203319 11 112 0.0 1.6 0.00 0.00 0.00 76 1021.3
20200219203118 11 112 0.0 1.6 0.00 0.00 0.00 76 1021.3
20200219202915 11 270 1.6 1.6 0.00 0.00 0.00 76 1021.4
20200219202713 11 112 0.0 3.2 0.00 0.00 0.00 76 1021.3
20200219202511 11 112 1.6 3.2 0.00 0.00 0.00 75 1021.3
20200219202309 11 270 0.0 1.6 0.00 0.00 0.00 75 1021.3
20200219202107 12 270 0.0 0.0 0.00 0.00 0.00 74 1021.3
20200219201905 12 270 0.0 0.0 0.00 0.00 0.00 74 1021.3
20200219201703 12 112 0.0 1.6 0.00 0.00 0.00 74 1021.3
20200219201501 12 112 0.0 1.6 0.00 0.00 0.00 74 1021.4
20200219201258 12 112 0.0 3.2 0.00 0.00 0.00 74 1021.4
20200219201057 12 112 0.0 3.2 0.00 0.00 0.00 73 1021.3
20200219200854 12 112 1.6 1.6 0.00 0.00 0.00 73 1021.2
20200219200654 12 112 0.0 1.6 0.00 0.00 0.00 72 1021.3
20200219200450 12 0 1.6 1.6 0.00 0.00 0.00 71 1021.3
20200219200249 12 0 0.0 1.6 0.00 0.00 0.00 71 1021.2
20200219200046 13 112 1.6 1.6 0.00 0.00 0.00 70 1021.3
20200219195844 13 270 1.6 1.6 0.00 0.00 0.00 70 1021.3
20200219195642 13 270 0.0 1.6 0.00 0.00 0.00 70 1021.2
20200219195440 13 270 0.0 1.6 0.00 0.00 0.00 69 1021.2
20200219195238 13 112 0.0 0.0 0.00 0.00 0.00 69 1021.2
20200219195036 13 112 0.0 0.0 0.00 0.00 0.00 69 1021.2
20200219194834 13 180 0.0 3.2 0.00 0.00 0.00 69 1021.2
20200219194632 13 180 0.0 3.2 0.00 0.00 0.00 69 1021.3
20200219194429 13 270 0.0 3.2 0.00 0.00 0.00 68 1021.2
20200219194229 13 67 3.2 3.2 0.00 0.00 0.00 68 1021.3
20200219194025 13 180 0.0 1.6 0.00 0.00 0.00 68 1021.2
20200219193824 13 180 0.0 1.6 0.00 0.00 0.00 68 1021.3
20200219193621 13 180 1.6 1.6 0.00 0.00 0.00 68 1021.2
20200219193420 14 45 0.0 0.0 0.00 0.00 0.00 67 1021.3
20200219193217 14 45 0.0 1.6 0.00 0.00 0.00 67 1021.3
20200219193016 14 45 0.0 1.6 0.00 0.00 0.00 67 1021.3
20200219192813 14 270 0.0 1.6 0.00 0.00 0.00 67 1021.3
20200219192611 14 180 0.0 3.2 0.00 0.00 0.00 67 1021.4
20200219192409 14 270 1.6 3.2 0.00 0.00 0.00 67 1021.2
20200219192207 14 45 3.2 3.2 0.00 0.00 0.00 66 1021.3
20200219191803 14 0 0.0 3.2 0.00 0.00 0.00 66 1021.3
20200219191601 14 157 0.0 3.2 0.00 0.00 0.00 66 1021.2
20200219191359 14 180 3.2 3.2 0.00 0.00 0.00 66 1021.2
20200219191157 14 270 0.0 1.6 0.00 0.00 0.00 66 1021.3
20200219190955 14 22 0.0 4.8 0.00 0.00 0.00 66 1021.2
20200219190752 14 22 1.6 4.8 0.00 0.00 0.00 66 1021.3
20200219190551 14 22 1.6 3.2 0.00 0.00 0.00 66 1021.3
20200219190348 14 22 0.0 3.2 0.00 0.00 0.00 65 1021.3
20200219190146 14 157 0.0 1.6 0.00 0.00 0.00 65 1021.3
20200219185944 15 22 1.6 3.2 0.00 0.00 0.00 65 1021.4
20200219185742 15 67 0.0 3.2 0.00 0.00 0.00 64 1021.3
20200219185540 15 135 3.2 3.2 0.00 0.00 0.00 64 1021.4
20200219185338 15 0 0.0 3.2 0.00 0.00 0.00 64 1021.3
20200219185136 15 180 1.6 1.6 0.00 0.00 0.00 64 1021.4
20200219184934 15 22 0.0 1.6 0.00 0.00 0.00 63 1021.4
20200219184530 15 22 0.0 0.0 0.00 0.00 0.00 63 1021.4
20200219184327 15 270 0.0 0.0 0.00 0.00 0.00 62 1021.3
20200219183923 16 270 0.0 1.6 0.00 0.00 0.00 62 1021.4
20200219183722 16 22 0.0 1.6 0.00 0.00 0.00 61 1021.3
20200219183317 16 112 0.0 1.6 0.00 0.00 0.00 60 1021.3
20200219183115 16 270 0.0 1.6 0.00 0.00 0.00 60 1021.2
20200219182913 16 22 1.6 1.6 0.00 0.00 0.00 60 1021.3
20200219182711 17 270 0.0 1.6 0.00 0.00 0.00 59 1021.3
20200219182509 17 22 1.6 1.6 0.00 0.00 0.00 58 1021.3
20200219182307 17 112 1.6 1.6 0.00 0.00 0.00 58 1021.2
20200219182105 17 270 0.0 1.6 0.00 0.00 0.00 58 1021.2
20200219181903 17 270 0.0 1.6 0.00 0.00 0.00 58 1021.3
20200219181701 18 135 0.0 4.8 0.00 0.00 0.00 58 1021.3
20200219181458 18 22 0.0 4.8 0.00 0.00 0.00 57 1021.2
20200219181257 18 180 4.8 4.8 0.00 0.00 0.00 57 1021.2
20200219181054 18 135 1.6 1.6 0.00 0.00 0.00 56 1021.1
20200219180853 19 270 0.0 1.6 0.00 0.00 0.00 56 1021.2
20200219180650 19 112 1.6 1.6 0.00 0.00 0.00 57 1021.1
20200219180448 19 112 0.0 1.6 0.00 0.00 0.00 56 1021.1
20200219180246 19 112 0.0 0.0 0.00 0.00 0.00 56 1021.1
20200219180044 20 112 0.0 1.6 0.00 0.00 0.00 56 1021.1
20200219175842 20 112 0.0 1.6 0.00 0.00 0.00 56 1021.1
20200219175640 20 0 1.6 1.6 0.00 0.00 0.00 56 1021.2
20200219175438 20 270 1.6 1.6 0.00 0.00 0.00 56 1021.1
20200219175236 20 270 0.0 1.6 0.00 0.00 0.00 56 1021.1
20200219175034 20 45 0.0 1.6 0.00 0.00 0.00 55 1021.1
20200219174833 20 90 0.0 3.2 0.00 0.00 0.00 55 1021.1
20200219174629 20 270 0.0 3.2 0.00 0.00 0.00 55 1021.1
20200219174428 20 270 3.2 3.2 0.00 0.00 0.00 55 1021.2
20200219174226 20 112 0.0 1.6 0.00 0.00 0.00 54 1021.2
20200219174024 21 270 1.6 1.6 0.00 0.00 0.00 54 1021.2
20200219173821 21 270 0.0 1.6 0.00 0.00 0.00 53 1021.2
20200219173619 21 180 0.0 1.6 0.00 0.00 0.00 53 1021.2
20200219173417 21 45 0.0 1.6 0.00 0.00 0.00 53 1021.2
20200219173215 21 270 1.6 1.6 0.00 0.00 0.00 53 1021.1
20200219173013 21 112 0.0 3.2 0.00 0.00 0.00 53 1021.1
20200219172003 22 135 0.0 1.6 0.00 0.00 0.00 54 1021.2
20200219171800 22 45 0.0 1.6 0.00 0.00 0.00 54 1021.0
20200219171559 22 112 1.6 3.2 0.00 0.00 0.00 54 1021.1
20200219171356 22 112 0.0 4.8 0.00 0.00 0.00 53 1021.1
20200219171155 22 180 1.6 4.8 0.00 0.00 0.00 53 1021.1
20200219170952 22 112 1.6 4.8 0.00 0.00 0.00 53 1021.1
20200219170751 22 270 1.6 3.2 0.00 0.00 0.00 54 1021.2
20200219170548 22 180 1.6 3.2 0.00 0.00 0.00 53 1021.1
20200219170346 22 270 1.6 6.4 0.00 0.00 0.00 54 1021.0
20200219170144 22 45 1.6 6.4 0.00 0.00 0.00 53 1021.2
20200219165942 22 157 1.6 4.8 0.00 0.00 0.00 54 1021.1
20200219165740 22 270 1.6 4.8 0.00 0.00 0.00 54 1021.1
20200219165538 22 270 0.0 4.8 0.00 0.00 0.00 54 1021.1
20200219165336 22 180 1.6 6.4 0.00 0.00 0.00 54 1021.1
20200219165134 22 90 1.6 6.4 0.00 0.00 0.00 53 1021.2
20200219164931 22 135 3.2 6.4 0.00 0.00 0.00 53 1021.2
20200219164730 22 180 1.6 4.8 0.00 0.00 0.00 53 1021.2
20200219164527 22 270 1.6 4.8 0.00 0.00 0.00 53 1021.1
20200219164123 23 135 4.8 4.8 0.00 0.00 0.00 52 1021.2
20200219163921 23 157 3.2 3.2 0.00 0.00 0.00 53 1021.2
20200219163517 23 180 1.6 3.2 0.00 0.00 0.00 53 1021.2
20200219163315 23 180 0.0 4.8 0.00 0.00 0.00 53 1021.2
20200219162911 23 180 1.6 3.2 0.00 0.00 0.00 52 1021.2
20200219162709 23 180 1.6 3.2 0.00 0.00 0.00 53 1021.2
20200219162507 23 112 3.2 4.8 0.00 0.00 0.00 53 1021.3
20200219162305 23 112 1.6 4.8 0.00 0.00 0.00 54 1021.2
20200219162102 23 270 1.6 4.8 0.00 0.00 0.00 54 1021.3
20200219161901 23 0 3.2 3.2 0.00 0.00 0.00 54 1021.3
20200219161658 22 112 3.2 3.2 0.00 0.00 0.00 53 1021.3
20200219161457 22 180 1.6 4.8 0.00 0.00 0.00 53 1021.2
20200219161053 23 78 3.2 4.8 0.00 0.00 0.00 51 1021.3
20200219160850 23 67 3.2 4.8 0.00 0.00 0.00 52 1021.3
20200219160648 23 180 1.6 4.8 0.00 0.00 0.00 53 1021.2
20200219160446 23 180 3.2 4.8 0.00 0.00 0.00 53 1021.3
20200219160244 23 180 4.8 4.8 0.00 0.00 0.00 53 1021.3
20200219160042 23 67 3.2 4.8 0.00 0.00 0.00 52 1021.4
20200219155840 23 67 1.6 9.7 0.00 0.00 0.00 52 1021.3
20200219155638 23 112 1.6 9.7 0.00 0.00 0.00 53 1021.3
20200219155436 23 180 4.8 9.7 0.00 0.00 0.00 52 1021.3
20200219155233 23 270 1.6 4.8 0.00 0.00 0.00 53 1021.4
20200219155032 23 45 1.6 6.4 0.00 0.00 0.00 52 1021.4
20200219154829 23 180 1.6 6.4 0.00 0.00 0.00 52 1021.4
20200219154628 23 135 6.4 6.4 0.00 0.00 0.00 52 1021.5
20200219154425 23 45 3.2 4.8 0.00 0.00 0.00 51 1021.4
20200219154224 23 112 1.6 6.4 0.00 0.00 0.00 52 1021.4
20200219154021 23 270 0.0 6.4 0.00 0.00 0.00 52 1021.5
20200219153819 23 135 4.8 4.8 0.00 0.00 0.00 53 1021.5
20200219153617 23 180 0.0 4.8 0.00 0.00 0.00 53 1021.6
20200219153415 23 225 1.6 4.8 0.00 0.00 0.00 53 1021.6
20200219153213 23 112 0.0 4.8 0.00 0.00 0.00 52 1021.6
20200219153011 23 180 3.2 4.8 0.00 0.00 0.00 52 1021.6
20200219152809 23 180 3.2 6.4 0.00 0.00 0.00 51 1021.6
20200219152607 23 112 3.2 6.4 0.00 0.00 0.00 52 1021.6
20200219152405 23 270 1.6 4.8 0.00 0.00 0.00 53 1021.5
20200219152203 23 0 0.0 8.0 0.00 0.00 0.00 52 1021.6
20200219152000 23 112 3.2 8.0 0.00 0.00 0.00 52 1021.6
20200219151759 23 225 1.6 6.4 0.00 0.00 0.00 53 1021.7
20200219151556 23 45 1.6 6.4 0.00 0.00 0.00 54 1021.8
20200219151355 23 112 4.8 9.7 0.00 0.00 0.00 53 1021.8
20200219151152 23 22 3.2 9.7 0.00 0.00 0.00 53 1021.8
20200219150950 23 135 1.6 4.8 0.00 0.00 0.00 55 1021.9
20200219150748 23 270 3.2 4.8 0.00 0.00 0.00 54 1021.9
20200219150546 23 90 1.6 4.8 0.00 0.00 0.00 55 1021.9
20200219150344 23 270 3.2 4.8 0.00 0.00 0.00 56 1021.8
20200219150142 22 112 0.0 3.2 0.00 0.00 0.00 55 1021.9
20200219145940 22 270 0.0 3.2 0.00 0.00 0.00 55 1022.0
20200219145738 22 22 1.6 4.8 0.00 0.00 0.00 55 1022.0
20200219145536 22 270 1.6 6.4 0.00 0.00 0.00 56 1022.0
20200219145334 22 270 1.6 6.4 0.00 0.00 0.00 54 1022.0
20200219145131 22 135 6.4 6.4 0.00 0.00 0.00 54 1022.0
20200219144930 22 180 3.2 6.4 0.00 0.00 0.00 54 1022.1
20200219144727 22 180 3.2 11.3 0.00 0.00 0.00 53 1022.0
20200219144526 22 135 11.3 11.3 0.00 0.00 0.00 54 1022.0
20200219144323 22 22 1.6 4.8 0.00 0.00 0.00 55 1022.1
20200219144121 22 270 1.6 4.8 0.00 0.00 0.00 56 1022.2
20200219143919 22 112 0.0 11.3 0.00 0.00 0.00 54 1022.2
20200219143717 22 180 3.2 11.3 0.00 0.00 0.00 54 1022.2
20200219143515 22 180 1.6 6.4 0.00 0.00 0.00 57 1022.3
20200219143313 22 112 1.6 4.8 0.00 0.00 0.00 57 1022.3
20200219143111 22 112 3.2 8.0 0.00 0.00 0.00 57 1022.3
20200219142909 21 112 1.6 8.0 0.00 0.00 0.00 56 1022.4
20200219142505 21 112 4.8 8.0 0.00 0.00 0.00 55 1022.5
20200219142302 21 180 1.6 6.4 0.00 0.00 0.00 57 1022.6
20200219141900 21 180 3.2 11.3 0.00 0.00 0.00 56 1022.5
20200219141657 21 135 8.0 11.3 0.00 0.00 0.00 56 1022.7
20200219141454 22 135 4.8 8.0 0.00 0.00 0.00 54 1022.6
20200219141050 22 146 3.2 4.8 0.00 0.00 0.00 57 1022.7
20200219140850 22 270 1.6 11.3 0.00 0.00 0.00 57 1022.7
20200219140646 22 56 4.8 11.3 0.00 0.00 0.00 56 1022.7
20200219140444 22 157 1.6 11.3 0.00 0.00 0.00 57 1022.8
20200219140242 22 180 4.8 11.3 0.00 0.00 0.00 56 1022.8
20200219140040 22 157 8.0 8.0 0.00 0.00 0.00 58 1022.9
20200219135838 22 270 1.6 3.2 0.00 0.00 0.00 59 1022.9
20200219135636 22 180 3.2 4.8 0.00 0.00 0.00 60 1023.0
20200219135433 22 112 3.2 8.0 0.00 0.00 0.00 57 1023.0
20200219135232 22 225 1.6 8.0 0.00 0.00 0.00 58 1023.1
20200219135029 22 45 8.0 8.0 0.00 0.00 0.00 56 1023.1
20200219134828 22 0 8.0 8.0 0.00 0.00 0.00 56 1023.1
20200219134625 22 180 4.8 6.4 0.00 0.00 0.00 57 1023.2
20200219134423 22 22 3.2 4.8 0.00 0.00 0.00 59 1023.3
20200219134221 22 112 3.2 4.8 0.00 0.00 0.00 59 1023.2
20200219134019 22 180 1.6 4.8 0.00 0.00 0.00 61 1023.3
20200219133817 22 270 1.6 6.4 0.00 0.00 0.00 61 1023.4
20200219132807 21 78 4.8 11.3 0.00 0.00 0.00 59 1023.5
20200219132604 22 157 3.2 11.3 0.00 0.00 0.00 61 1023.4
20200219132403 22 180 3.2 11.3 0.00 0.00 0.00 61 1023.4
20200219132200 22 225 1.6 6.4 0.00 0.00 0.00 62 1023.4
20200219131959 22 135 4.8 8.0 0.00 0.00 0.00 62 1023.5
20200219131554 22 180 0.0 6.4 0.00 0.00 0.00 63 1023.6
20200219131352 21 180 1.6 4.8 0.00 0.00 0.00 63 1023.5
20200219131150 21 180 1.6 4.8 0.00 0.00 0.00 64 1023.6
20200219130342 21 180 4.8 4.8 0.00 0.00 0.00 63 1023.8
20200219125130 21 135 8.0 8.0 0.00 0.00 0.00 64 1024.0
20200219124927 21 225 3.2 8.0 0.00 0.00 0.00 66 1024.0
20200219124725 21 180 4.8 6.4 0.00 0.00 0.00 66 1024.0
20200219124523 20 270 3.2 4.8 0.00 0.00 0.00 67 1024.1
20200219124114 20 135 4.8 12.9 0.00 0.00 0.00 66 1024.2
20200219123912 20 180 3.2 6.4 0.00 0.00 0.00 67 1024.3
20200219123710 20 112 3.2 6.4 0.00 0.00 0.00 66 1024.3
20200219123508 20 180 1.6 9.7 0.00 0.00 0.00 66 1024.3
20200219123306 20 22 1.6 9.7 0.00 0.00 0.00 66 1024.3
20200219123104 20 135 1.6 6.4 0.00 0.00 0.00 66 1024.4
20200219122700 20 180 1.6 8.0 0.00 0.00 0.00 67 1024.6
20200219122457 19 45 1.6 8.0 0.00 0.00 0.00 67 1024.5
20200219122256 19 180 6.4 6.4 0.00 0.00 0.00 67 1024.5
20200219122053 19 22 3.2 9.7 0.00 0.00 0.00 68 1024.6
20200219121852 19 22 4.8 9.7 0.00 0.00 0.00 67 1024.7
20200219121649 19 157 4.8 11.3 0.00 0.00 0.00 68 1024.8
20200219121447 19 157 4.8 11.3 0.00 0.00 0.00 67 1024.7
20200219121245 19 146 6.4 9.7 0.00 0.00 0.00 68 1024.7
20200219121043 19 90 4.8 9.7 0.00 0.00 0.00 68 1024.8
20200219120841 19 90 6.4 9.7 0.00 0.00 0.00 66 1024.9
20200219120639 19 135 1.6 4.8 0.00 0.00 0.00 70 1024.9
20200219120437 18 180 1.6 6.4 0.00 0.00 0.00 68 1025.0
20200219120235 18 112 3.2 6.4 0.00 0.00 0.00 68 1025.1
20200219120033 18 0 1.6 6.4 0.00 0.00 0.00 68 1025.1
20200219115831 18 270 1.6 6.4 0.00 0.00 0.00 68 1025.1
20200219115629 18 180 3.2 11.3 0.00 0.00 0.00 68 1025.1
20200219115427 19 157 3.2 11.3 0.00 0.00 0.00 68 1025.2
20200219115224 19 22 3.2 8.0 0.00 0.00 0.00 69 1025.1
20200219115023 19 157 8.0 11.3 0.00 0.00 0.00 69 1025.2
20200219114820 19 180 6.4 11.3 0.00 0.00 0.00 70 1025.1
20200219114618 19 180 4.8 6.4 0.00 0.00 0.00 70 1025.3
20200219114416 19 112 1.6 4.8 0.00 0.00 0.00 71 1025.3
20200219114214 19 112 0.0 4.8 0.00 0.00 0.00 71 1025.3
20200219114012 19 180 0.0 4.8 0.00 0.00 0.00 72 1025.4
20200219113810 18 112 1.6 6.4 0.00 0.00 0.00 73 1025.4
20200219113608 18 90 1.6 6.4 0.00 0.00 0.00 72 1025.4
20200219113406 18 112 0.0 6.4 0.00 0.00 0.00 72 1025.5
20200219113203 18 135 4.8 9.7 0.00 0.00 0.00 69 1025.5
20200219113002 18 90 4.8 9.7 0.00 0.00 0.00 71 1025.5
20200219112759 18 135 4.8 6.4 0.00 0.00 0.00 73 1025.3
20200219112558 18 270 1.6 6.4 0.00 0.00 0.00 74 1025.4
20200219112355 18 180 3.2 3.2 0.00 0.00 0.00 71 1025.6
20200219112154 18 0 1.6 3.2 0.00 0.00 0.00 75 1025.6
20200219111951 17 270 3.2 3.2 0.00 0.00 0.00 77 1025.5
20200219111749 17 270 1.6 3.2 0.00 0.00 0.00 76 1025.7
20200219111547 17 112 0.0 4.8 0.00 0.00 0.00 77 1025.6
20200219111345 17 112 0.0 4.8 0.00 0.00 0.00 76 1025.6
20200219111143 17 315 1.6 4.8 0.00 0.00 0.00 77 1025.7
20200219110941 17 112 1.6 11.3 0.00 0.00 0.00 76 1025.8
20200219110739 16 90 1.6 11.3 0.00 0.00 0.00 75 1025.6
20200219110537 16 180 4.8 6.4 0.00 0.00 0.00 78 1025.7
20200219110334 16 90 4.8 4.8 0.00 0.00 0.00 78 1025.7
20200219110133 16 112 1.6 3.2 0.00 0.00 0.00 80 1025.7
20200219105930 16 112 0.0 6.4 0.00 0.00 0.00 80 1025.9
20200219105729 15 112 1.6 6.4 0.00 0.00 0.00 79 1025.9
20200219105526 15 225 0.0 6.4 0.00 0.00 0.00 80 1025.9
20200219105325 15 135 1.6 6.4 0.00 0.00 0.00 81 1025.8
20200219105122 15 135 3.2 6.4 0.00 0.00 0.00 82 1026.0
20200219104920 14 135 0.0 11.3 0.00 0.00 0.00 82 1026.0
20200219104718 14 90 3.2 11.3 0.00 0.00 0.00 83 1026.0
20200219104516 13 146 4.8 11.3 0.00 0.00 0.00 83 1026.1
20200219104314 13 22 1.6 3.2 0.00 0.00 0.00 86 1026.2
20200219104114 13 270 1.6 3.2 0.00 0.00 0.00 87 1026.2
20200219103910 13 112 1.6 6.4 0.00 0.00 0.00 88 1026.2
20200219103708 13 112 0.0 6.4 0.00 0.00 0.00 86 1026.3
20200219103505 12 112 0.0 3.2 0.00 0.00 0.00 87 1026.2
20200219103304 12 112 1.6 3.2 0.00 0.00 0.00 87 1026.4
20200219103101 12 112 3.2 4.8 0.00 0.00 0.00 87 1026.4
20200219102900 12 270 1.6 4.8 0.00 0.00 0.00 87 1026.2
20200219102657 12 112 1.6 4.8 0.00 0.00 0.00 87 1026.5
20200219102253 12 112 4.8 6.4 0.00 0.00 0.00 86 1026.6
20200219102051 12 112 4.8 8.0 0.00 0.00 0.00 89 1026.0
20200219101647 11 112 4.8 6.4 0.00 0.00 0.00 90 1025.9
20200219101445 11 112 4.8 6.4 0.00 0.00 0.00 89 1026.4
20200219101243 11 112 3.2 4.8 0.00 0.00 0.00 90 1026.7
20200219101041 11 270 3.2 4.8 0.00 0.00 0.00 92 1026.8
20200219100839 11 112 4.8 4.8 0.00 0.00 0.00 88 1026.6
20200219100435 11 112 1.6 6.4 0.00 0.00 0.00 93 1026.4
20200219100232 10 270 3.2 6.4 0.00 0.00 0.00 93 1026.3
20200219100034 10 270 4.8 4.8 0.00 0.00 0.00 92 1026.8
20200219095828 10 112 3.2 4.8 0.00 0.00 0.00 94 1026.8
20200219095627 10 135 1.6 4.8 0.00 0.00 0.00 92 1026.9
20200219095424 10 112 4.8 4.8 0.00 0.00 0.00 92 1026.8
20200219094818 9 270 3.2 6.4 0.00 0.00 0.00 94 1026.8
20200219094616 9 0 3.2 6.4 0.00 0.00 0.00 94 1026.9
20200219094414 9 270 3.2 6.4 0.00 0.00 0.00 94 1026.9
20200219094212 8 22 1.6 6.4 0.00 0.00 0.00 91 1026.6
20200219094010 8 270 1.6 8.0 0.00 0.00 0.00 94 1026.9
20200219093808 8 0 3.2 8.0 0.00 0.00 0.00 93 1026.8
20200219093606 8 270 6.4 8.0 0.00 0.00 0.00 95 1026.8
20200219093403 8 112 6.4 8.0 0.00 0.00 0.00 95 1026.8
20200219093202 8 112 1.6 8.0 0.00 0.00 0.00 95 1026.9
20200219092959 8 270 4.8 8.0 0.00 0.00 0.00 95 1026.7
20200219092758 8 112 8.0 9.7 0.00 0.00 0.00 95 1026.9
20200219092555 8 112 3.2 9.7 0.00 0.00 0.00 96 1026.8
20200219092353 8 112 3.2 8.0 0.00 0.00 0.00 95 1026.8
20200219092151 8 112 4.8 6.4 0.00 0.00 0.00 96 1026.7
20200219091958 8 112 1.6 4.8 0.00 0.00 0.00 96 1026.6
20200219091747 8 22 4.8 6.4 0.00 0.00 0.00 96 1026.6
20200219091545 8 112 0.0 6.4 0.00 0.00 0.00 96 1026.7
20200219091343 8 22 1.6 9.7 0.00 0.00 0.00 96 1026.7
20200219091141 7 112 6.4 9.7 0.00 0.00 0.00 96 1026.7
20200219090737 7 112 6.4 6.4 0.00 0.00 0.00 96 1026.6
20200219090534 7 22 3.2 6.4 0.00 0.00 0.00 97 1026.5
20200219090333 7 22 1.6 8.0 0.00 0.00 0.00 97 1026.5
20200219090130 7 112 4.8 8.0 0.00 0.00 0.00 97 1026.5
20200219085929 7 270 1.6 9.7 0.00 0.00 0.00 97 1026.5
20200219085726 7 112 1.6 9.7 0.00 0.00 0.00 97 1026.6
20200219085524 7 112 9.7 9.7 0.00 0.00 0.00 98 1026.5
20200219085322 7 90 8.0 8.0 0.00 0.00 0.00 98 1026.6
20200219085120 7 270 6.4 6.4 0.00 0.00 0.00 99 1026.6
20200219084918 7 270 1.6 4.8 0.00 0.00 0.00 100 1026.4
20200219084716 7 112 4.8 4.8 0.00 0.00 0.00 100 1026.5
20200219084514 7 270 3.2 3.2 0.00 0.00 0.00 100 1026.4
20200219084314 6 270 0.0 1.6 0.00 0.00 0.00 100 1026.4
20200219084110 6 270 0.0 1.6 0.00 0.00 0.00 100 1026.4
20200219083908 6 270 1.6 1.6 0.00 0.00 0.00 100 1026.3
20200219083707 6 0 0.0 1.6 0.00 0.00 0.00 100 1026.3
20200219083506 6 270 0.0 1.6 0.00 0.00 0.00 100 1026.3
20200219083303 6 270 0.0 0.0 0.00 0.00 0.00 100 1026.2
20200219083101 6 270 0.0 0.0 0.00 0.00 0.00 100 1026.2
20200219082857 5 270 0.0 1.6 0.00 0.00 0.00 100 1026.1
20200219082657 5 270 0.0 1.6 0.00 0.00 0.00 100 1026.1
20200219082453 5 270 0.0 1.6 0.00 0.00 0.00 100 1026.0
20200219081847 5 180 3.2 8.0 0.00 0.00 0.00 100 1026.1
20200219081645 5 135 3.2 6.4 0.00 0.00 0.00 100 1026.0
20200219081241 5 180 4.8 8.0 0.00 0.00 0.00 100 1025.9
20200219081039 5 157 6.4 8.0 0.00 0.00 0.00 100 1025.9
20200219080836 5 180 3.2 3.2 0.00 0.00 0.00 100 1026.0
20200219080635 5 180 0.0 6.4 0.00 0.00 0.00 100 1026.0
20200219080432 5 180 3.2 6.4 0.00 0.00 0.00 100 1026.0
20200219080231 5 22 1.6 9.7 0.00 0.00 0.00 100 1026.0
20200219080029 5 45 3.2 9.7 0.00 0.00 0.00 100 1026.0
20200219075827 4 180 0.0 6.4 0.00 0.00 0.00 100 1026.0